CW4143 Weather Reports


Display with metric or nautical units.
time (UTC)temp
F
wind
direction
speed
MPH
gust
MPH
rain 1hr
in
rain 24hr
in
rain mn
in
humidity
%
barometer
mb
20220123151841 21 287 0.0 2.0 0.00 0.00 0.00 82 1026.0
20220123151353 21 287 1.0 2.0 0.00 0.00 0.00 83 1025.6
20220123150845 21 279 1.0 3.0 0.00 0.00 0.00 83 1025.6
20220123150337 21 279 0.0 4.0 0.00 0.00 0.00 82 1025.6
20220123145850 21 284 2.0 4.0 0.00 0.00 0.00 82 1025.7
20220123145343 21 295 2.0 4.0 0.00 0.00 0.00 81 1025.7
20220123144836 21 270 2.0 4.0 0.00 0.00 0.00 81 1025.7
20220123144349 22 277 3.0 6.0 0.00 0.00 0.00 81 1025.7
20220123143843 22 312 3.0 7.0 0.00 0.00 0.00 80 1025.7
20220123143339 22 276 4.0 7.0 0.00 0.00 0.00 81 1025.7
20220123142853 22 278 3.0 7.0 0.00 0.00 0.00 81 1025.8
20220123142345 22 294 2.0 10.0 0.00 0.00 0.00 81 1025.8
20220123141842 22 322 5.0 11.0 0.00 0.00 0.00 82 1025.8
20220123141354 21 340 6.0 9.0 0.00 0.00 0.00 82 1025.4
20220123140847 22 10 4.0 7.0 0.00 0.00 0.00 82 1025.4
20220123140340 22 52 5.0 7.0 0.00 0.00 0.00 84 1025.4
20220123135837 22 5 0.0 6.0 0.00 0.00 0.00 86 1025.1
20220123135350 21 357 3.0 4.0 0.00 0.00 0.00 87 1025.1
20220123134842 18 306 1.0 2.0 0.00 0.00 0.00 85 1025.1
20220123134355 19 306 1.0 2.0 0.00 0.00 0.00 86 1024.9
20220123133846 18 306 0.0 2.0 0.00 0.00 0.00 86 1024.9
20220123133338 19 306 0.0 2.0 0.00 0.00 0.00 86 1024.9
20220123132850 19 306 2.0 2.0 0.00 0.00 0.00 86 1025.0
20220123132343 19 306 0.0 2.0 0.00 0.00 0.00 86 1025.0
20220123131836 19 306 2.0 2.0 0.00 0.00 0.00 86 1025.0
20220123131350 19 306 1.0 2.0 0.00 0.00 0.00 86 1025.3
20220123130841 20 306 2.0 2.0 0.00 0.00 0.00 87 1025.3
20220123130335 19 306 1.0 2.0 0.00 0.00 0.00 86 1025.3
20220123125848 19 306 2.0 2.0 0.00 0.00 0.00 86 1025.1
20220123125341 19 306 0.0 2.0 0.00 0.00 0.00 86 1025.1
20220123124853 19 306 0.0 2.0 0.00 0.00 0.00 86 1025.1
20220123124345 19 306 0.0 1.0 0.00 0.00 0.00 86 1025.2
20220123123842 19 306 0.0 1.0 0.00 0.00 0.00 86 1025.2
20220123123355 19 306 0.0 1.0 0.00 0.00 0.00 85 1025.2
20220123122847 20 306 0.0 2.0 0.00 0.00 0.00 86 1025.3
20220123122339 19 306 1.0 2.0 0.00 0.00 0.00 86 1025.3
20220123121853 19 306 0.0 2.0 0.00 0.00 0.00 86 1025.3
20220123121347 19 306 1.0 2.0 0.00 0.00 0.00 85 1025.7
20220123120839 19 306 1.0 2.0 0.00 0.00 0.00 85 1025.7
20220123120336 19 306 1.0 2.0 0.00 0.00 0.00 85 1025.7
20220123115849 19 306 1.0 2.0 0.00 0.00 0.00 85 1025.7
20220123115340 19 306 2.0 2.0 0.00 0.00 0.00 85 1025.7
20220123114853 19 306 1.0 2.0 0.00 0.00 0.00 84 1025.7
20220123114345 20 287 1.0 2.0 0.00 0.00 0.00 84 1025.2
20220123113838 20 287 1.0 3.0 0.00 0.00 0.00 84 1025.2
20220123113351 21 287 1.0 3.0 0.00 0.00 0.00 84 1025.2
20220123112844 21 265 2.0 3.0 0.00 0.00 0.00 84 1025.2
20220123112336 21 238 2.0 3.0 0.00 0.00 0.00 84 1025.2
20220123111849 22 156 1.0 2.0 0.00 0.00 0.00 84 1025.2
20220123111342 21 144 0.0 2.0 0.00 0.00 0.00 84 1025.4
20220123110839 21 144 0.0 2.0 0.00 0.00 0.00 83 1025.4
20220123110351 21 144 0.0 2.0 0.00 0.00 0.00 83 1025.4
20220123105848 22 144 1.0 2.0 0.00 0.00 0.00 83 1025.7
20220123105340 22 144 1.0 2.0 0.00 0.00 0.00 82 1025.7
20220123104852 22 144 0.0 2.0 0.00 0.00 0.00 82 1025.7
20220123104345 23 144 1.0 3.0 0.00 0.00 0.00 82 1025.9
20220123103838 23 144 2.0 3.0 0.00 0.00 0.00 80 1025.9
20220123103353 24 144 0.0 3.0 0.00 0.00 0.00 82 1025.9
20220123102846 24 147 2.0 4.0 0.00 0.00 0.00 82 1026.0
20220123102336 24 98 1.0 5.0 0.00 0.00 0.00 83 1026.0
20220123101851 23 346 3.0 5.0 0.00 0.00 0.00 82 1026.0
20220123101344 23 341 1.0 5.0 0.00 0.00 0.00 81 1025.7
20220123100837 23 59 0.0 1.0 0.00 0.00 0.00 82 1025.7
20220123100350 23 59 1.0 2.0 0.00 0.00 0.00 81 1025.7
20220123095846 24 59 1.0 3.0 0.00 0.00 0.00 81 1025.7
20220123095336 23 59 1.0 5.0 0.00 0.00 0.00 84 1025.7
20220123094851 22 350 3.0 9.0 0.00 0.00 0.00 82 1025.7
20220123094344 23 338 7.0 9.0 0.00 0.00 0.00 82 1026.2
20220123093837 23 340 4.0 7.0 0.00 0.00 0.00 82 1026.2
20220123093350 22 354 3.0 5.0 0.00 0.00 0.00 82 1026.2
20220123092842 21 317 2.0 4.0 0.00 0.00 0.00 81 1026.1
20220123092342 21 281 1.0 3.0 0.00 0.00 0.00 81 1026.1
20220123091836 21 281 2.0 3.0 0.00 0.00 0.00 82 1026.1
20220123091349 22 281 2.0 2.0 0.00 0.00 0.00 82 1026.1
20220123090841 21 281 1.0 2.0 0.00 0.00 0.00 81 1026.1
20220123090354 21 281 0.0 3.0 0.00 0.00 0.00 80 1026.1
20220123085848 22 281 2.0 3.0 0.00 0.00 0.00 80 1026.0
20220123085340 22 281 1.0 3.0 0.00 0.00 0.00 80 1026.0
20220123084852 22 279 2.0 3.0 0.00 0.00 0.00 80 1026.0
20220123084347 22 278 2.0 3.0 0.00 0.00 0.00 80 1025.5
20220123083837 23 268 1.0 4.0 0.00 0.00 0.00 79 1025.5
20220123083352 23 248 2.0 4.0 0.00 0.00 0.00 80 1025.5
20220123082843 23 273 2.0 4.0 0.00 0.00 0.00 81 1025.9
20220123082337 23 281 2.0 3.0 0.00 0.00 0.00 81 1025.9
20220123081850 22 277 1.0 2.0 0.00 0.00 0.00 81 1025.9
20220123081342 22 277 1.0 4.0 0.00 0.00 0.00 81 1025.6
20220123080856 24 277 1.0 4.0 0.00 0.00 0.00 79 1025.6
20220123080407 25 281 2.0 5.0 0.00 0.00 0.00 82 1025.6
20220123075839 24 268 2.0 5.0 0.00 0.00 0.00 82 1026.1
20220123075349 25 250 2.0 5.0 0.00 0.00 0.00 85 1026.1
20220123074901 24 285 3.0 5.0 0.00 0.00 0.00 85 1026.1
20220123074349 23 302 3.0 5.0 0.00 0.00 0.00 86 1026.2
20220123073841 22 302 3.0 4.0 0.00 0.00 0.00 86 1026.2
20220123073338 22 304 3.0 3.0 0.00 0.00 0.00 85 1026.2
20220123072850 22 299 1.0 3.0 0.00 0.00 0.00 85 1026.1
20220123072344 21 299 2.0 3.0 0.00 0.00 0.00 84 1026.1
20220123071854 22 299 2.0 3.0 0.00 0.00 0.00 83 1026.1
20220123071348 21 299 0.0 3.0 0.00 0.00 0.00 83 1025.8
20220123070840 21 286 2.0 2.0 0.00 0.00 0.00 81 1025.8
20220123070354 22 212 1.0 2.0 0.00 0.00 0.00 81 1025.8
20220123065846 22 202 0.0 2.0 0.00 0.00 0.00 80 1026.2
20220123065339 24 202 0.0 3.0 0.00 0.00 0.00 79 1026.2
20220123064854 24 202 2.0 3.0 0.00 0.00 0.00 80 1026.2
20220123064345 24 213 2.0 3.0 0.00 0.00 0.00 80 1026.3
20220123063839 23 213 2.0 2.0 0.00 0.00 0.00 79 1026.3
20220123063352 24 213 1.0 3.0 0.00 0.00 0.00 78 1026.3
20220123062846 24 203 1.0 3.0 0.00 0.00 0.00 79 1026.2
20220123062339 24 177 1.0 3.0 0.00 0.00 0.00 78 1026.2
20220123061852 25 177 1.0 3.0 0.00 0.00 0.00 79 1026.2
20220123061349 24 5 0.0 3.0 0.00 0.00 0.00 80 1026.2
20220123060845 23 86 1.0 2.0 0.00 0.00 0.00 79 1026.2
20220123060338 24 86 1.0 2.0 0.00 0.00 0.00 79 1026.2
20220123055836 24 86 0.0 2.0 0.00 0.00 0.00 78 1026.1
20220123055349 24 86 1.0 2.0 0.00 0.00 0.00 78 1026.1
20220123054842 24 86 1.0 2.0 0.00 0.00 0.00 78 1026.1
20220123054336 25 86 1.0 3.0 0.00 0.00 0.00 78 1025.7
20220123053850 25 86 0.0 4.0 0.00 0.00 0.00 76 1025.7
20220123053343 26 88 0.0 5.0 0.00 0.00 0.00 76 1025.7
20220123052836 26 88 3.0 5.0 0.00 0.00 0.00 75 1025.3
20220123052349 26 70 3.0 7.0 0.00 0.00 0.00 75 1025.3
20220123051842 27 57 3.0 7.0 0.00 0.00 0.00 75 1025.3
20220123051338 27 43 2.0 11.0 0.00 0.00 0.00 74 1025.3
20220123050850 27 10 4.0 12.0 0.00 0.00 0.00 77 1025.3
20220123050344 26 26 7.0 13.0 0.00 0.00 0.00 78 1025.3
20220123045836 26 334 8.0 15.0 0.00 0.00 0.00 79 1025.6
20220123045348 25 348 10.0 15.0 0.00 0.00 0.00 80 1025.6
20220123044840 25 349 12.0 17.0 0.00 0.00 0.00 80 1025.6
20220123044351 25 339 11.0 20.0 0.00 0.00 0.00 81 1025.6
20220123043843 25 346 13.0 20.0 0.00 0.00 0.00 81 1025.6
20220123043336 25 15 14.0 19.0 0.00 0.00 0.00 81 1025.6
20220123042850 25 349 11.0 19.0 0.00 0.00 0.00 80 1025.5
20220123042343 25 334 13.0 19.0 0.00 0.00 0.00 80 1025.5
20220123041839 25 314 12.0 17.0 0.00 0.00 0.00 80 1025.5
20220123041354 25 339 10.0 18.0 0.00 0.00 0.00 80 1025.0
20220123040848 25 338 13.0 18.0 0.00 0.00 0.00 80 1025.0
20220123040338 25 341 12.0 17.0 0.00 0.00 0.00 80 1025.0
20220123035852 25 337 11.0 16.0 0.00 0.00 0.00 80 1024.6
20220123035346 25 339 11.0 16.0 0.00 0.00 0.00 80 1024.6
20220123034839 25 334 12.0 17.0 0.00 0.00 0.00 80 1024.6
20220123034352 25 311 10.0 17.0 0.00 0.00 0.00 81 1024.8
20220123033845 25 356 12.0 18.0 0.00 0.00 0.00 80 1024.8
20220123033338 25 333 13.0 20.0 0.00 0.00 0.00 81 1024.8
20220123032851 24 349 12.0 23.0 0.00 0.00 0.00 80 1024.8
20220123032341 25 331 15.0 23.0 0.00 0.00 0.00 80 1024.8
20220123031854 24 342 18.0 21.0 0.00 0.00 0.00 80 1024.8
20220123031347 24 5 17.0 21.0 0.00 0.00 0.00 79 1024.9
20220123030353 24 350 17.0 23.0 0.00 0.00 0.00 79 1024.9
20220123025845 24 329 18.0 25.0 0.00 0.00 0.00 79 1024.6
20220123025338 24 346 18.0 26.0 0.00 0.00 0.00 79 1024.6
20220123024853 24 353 18.0 26.0 0.00 0.00 0.00 79 1024.6
20220123024346 24 341 15.0 24.0 0.00 0.00 0.00 79 1024.6
20220123023844 24 333 16.0 23.0 0.00 0.00 0.00 81 1024.6
20220123023337 24 331 14.0 21.0 0.00 0.00 0.00 81 1024.6
20220123022851 24 339 16.0 21.0 0.00 0.00 0.00 81 1024.6
20220123022343 25 343 16.0 22.0 0.00 0.00 0.00 81 1024.6
20220123021835 25 5 12.0 22.0 0.00 0.00 0.00 82 1024.6
20220123021347 25 348 12.0 22.0 0.00 0.00 0.00 82 1024.9
20220123020839 25 337 15.0 22.0 0.00 0.00 0.00 81 1024.9
20220123020353 25 335 17.0 21.0 0.00 0.00 0.00 81 1024.9
20220123015847 25 333 16.0 23.0 0.00 0.00 0.00 81 1024.8
20220123015340 25 339 15.0 22.0 0.00 0.00 0.00 81 1024.8
20220123014853 25 354 15.0 23.0 0.00 0.00 0.00 81 1024.8
20220123014347 26 345 18.0 23.0 0.00 0.00 0.00 80 1024.9
20220123013839 26 348 16.0 21.0 0.00 0.00 0.00 79 1024.9
20220123013334 26 350 14.0 19.0 0.00 0.00 0.00 78 1024.9
20220123012850 26 352 14.0 18.0 0.00 0.00 0.00 77 1024.8
20220123012342 26 5 14.0 18.0 0.00 0.00 0.00 76 1024.8
20220123011854 26 356 11.0 18.0 0.00 0.00 0.00 75 1024.8
20220123011347 27 336 12.0 18.0 0.00 0.00 0.00 75 1024.3
20220123010841 27 360 11.0 16.0 0.00 0.00 0.00 75 1024.3
20220123010337 27 319 9.0 15.0 0.00 0.00 0.00 75 1024.3
20220123005851 27 341 10.0 16.0 0.00 0.00 0.00 74 1024.2
20220123005343 27 335 9.0 16.0 0.00 0.00 0.00 74 1024.2
20220123004856 27 356 10.0 12.0 0.00 0.00 0.00 74 1024.2
20220123004348 27 330 8.0 13.0 0.00 0.00 0.00 74 1024.0
20220123003842 27 323 7.0 13.0 0.00 0.00 0.00 74 1024.0
20220123003337 28 327 7.0 12.0 0.00 0.00 0.00 73 1024.0
20220123002850 28 297 8.0 13.0 0.00 0.00 0.00 73 1024.0
20220123002344 28 296 6.0 15.0 0.00 0.00 0.00 72 1024.0
20220123001835 28 287 10.0 15.0 0.00 0.00 0.00 72 1024.0
20220123001350 28 339 11.0 14.0 0.00 0.00 0.00 72 1024.4
20220123000840 28 345 9.0 14.0 0.00 0.00 0.00 71 1024.4
20220123000354 29 344 9.0 14.0 0.00 0.00 0.00 70 1024.4
20220122235847 29 333 8.0 13.0 0.00 0.00 0.00 70 1024.3
20220122235341 29 326 9.0 13.0 0.00 0.00 0.00 70 1024.3
20220122234853 29 339 9.0 12.0 0.00 0.00 0.00 70 1024.3
20220122234348 29 346 7.0 13.0 0.00 0.00 0.00 69 1024.3
20220122233841 29 346 9.0 14.0 0.00 0.00 0.00 69 1024.3
20220122233353 29 340 9.0 15.0 0.00 0.00 0.00 69 1024.3
20220122232846 29 346 12.0 15.0 0.00 0.00 0.00 70 1024.3
20220122232340 29 351 10.0 16.0 0.00 0.00 0.00 70 1024.3
20220122231855 29 329 12.0 18.0 0.00 0.00 0.00 70 1024.3
20220122231347 29 23 12.0 18.0 0.00 0.00 0.00 70 1024.2
20220122230841 29 352 14.0 18.0 0.00 0.00 0.00 69 1024.2
20220122230354 29 350 11.0 22.0 0.00 0.00 0.00 69 1024.2
20220122225848 29 359 15.0 22.0 0.00 0.00 0.00 69 1024.3
20220122225339 30 5 16.0 22.0 0.00 0.00 0.00 69 1024.3
20220122224852 29 357 17.0 22.0 0.00 0.00 0.00 68 1024.3
20220122224346 30 5 18.0 22.0 0.00 0.00 0.00 67 1023.8
20220122223839 30 339 16.0 22.0 0.00 0.00 0.00 67 1023.8
20220122223335 30 347 14.0 22.0 0.00 0.00 0.00 67 1023.8
20220122222848 30 351 13.0 22.0 0.00 0.00 0.00 66 1023.8
20220122222340 31 346 15.0 20.0 0.00 0.00 0.00 65 1023.8
20220122221832 31 331 11.0 20.0 0.00 0.00 0.00 66 1023.8
20220122221348 31 36 12.0 22.0 0.00 0.00 0.00 66 1023.7
20220122220839 31 346 10.0 24.0 0.00 0.00 0.00 67 1023.7
20220122220353 31 20 17.0 24.0 0.00 0.00 0.00 66 1023.7
20220122215847 31 343 13.0 24.0 0.00 0.00 0.00 67 1023.7
20220122215339 31 338 17.0 24.0 0.00 0.00 0.00 67 1023.7
20220122214838 31 323 14.0 22.0 0.00 0.00 0.00 67 1023.7
20220122214351 31 317 12.0 19.0 0.00 0.00 0.00 66 1023.9
20220122213844 32 329 8.0 16.0 0.00 0.00 0.00 66 1023.9
20220122213340 32 5 11.0 15.0 0.00 0.00 0.00 65 1023.9
20220122212853 32 342 9.0 15.0 0.00 0.00 0.00 66 1023.8
20220122212345 31 326 4.0 14.0 0.00 0.00 0.00 66 1023.8
20220122211839 32 315 8.0 14.0 0.00 0.00 0.00 66 1023.8
20220122211352 31 326 5.0 16.0 0.00 0.00 0.00 67 1023.8
20220122210845 31 343 10.0 16.0 0.00 0.00 0.00 67 1023.8
20220122210342 31 338 12.0 16.0 0.00 0.00 0.00 67 1023.8
20220122205854 30 343 10.0 17.0 0.00 0.00 0.00 67 1023.8
20220122205347 31 350 10.0 18.0 0.00 0.01 0.00 67 1023.8
20220122204843 31 343 12.0 19.0 0.00 0.01 0.00 67 1023.8
20220122204335 31 340 13.0 19.0 0.00 0.01 0.00 65 1023.8
20220122203848 31 345 10.0 15.0 0.00 0.01 0.00 65 1023.8
20220122203340 31 329 10.0 18.0 0.00 0.01 0.00 67 1023.8
20220122202834 31 348 13.0 18.0 0.00 0.01 0.00 66 1024.1
20220122202350 31 350 13.0 17.0 0.00 0.01 0.00 66 1024.1
20220122201843 31 348 9.0 13.0 0.00 0.01 0.00 67 1024.1
20220122201340 30 310 9.0 15.0 0.00 0.01 0.00 67 1024.3
20220122200852 30 354 8.0 15.0 0.00 0.01 0.00 68 1024.3
20220122200345 30 338 9.0 15.0 0.00 0.01 0.00 68 1024.3
20220122195838 30 339 5.0 18.0 0.00 0.01 0.00 68 1024.3
20220122195351 29 345 9.0 19.0 0.00 0.01 0.00 70 1024.3
20220122194842 29 340 15.0 19.0 0.00 0.01 0.00 71 1024.3
20220122194354 29 318 10.0 21.0 0.00 0.01 0.00 71 1024.9
20220122193846 29 324 11.0 21.0 0.00 0.01 0.00 72 1024.9
20220122193337 28 331 14.0 19.0 0.00 0.01 0.00 71 1024.9
20220122192852 29 10 13.0 19.0 0.00 0.01 0.00 70 1025.0
20220122192344 28 300 13.0 20.0 0.00 0.01 0.00 71 1025.0
20220122191837 28 339 16.0 22.0 0.00 0.01 0.00 71 1025.0
20220122191349 28 334 16.0 22.0 0.00 0.01 0.00 72 1025.4
20220122190842 28 314 18.0 22.0 0.00 0.01 0.00 71 1025.4
20220122190335 28 335 16.0 23.0 0.00 0.01 0.00 71 1025.4
20220122185848 28 350 17.0 23.0 0.00 0.01 0.00 71 1025.5
20220122185339 28 340 17.0 22.0 0.00 0.01 0.00 70 1025.5
20220122184853 28 308 14.0 20.0 0.00 0.01 0.00 70 1025.5
20220122184346 28 5 15.0 19.0 0.00 0.01 0.00 71 1025.8
20220122183837 28 348 10.0 18.0 0.00 0.01 0.00 70 1025.8
20220122183338 28 10 10.0 17.0 0.00 0.01 0.00 70 1025.8
20220122182849 27 5 9.0 17.0 0.00 0.01 0.00 70 1025.9
20220122182343 28 346 12.0 15.0 0.00 0.01 0.00 66 1025.9
20220122181836 28 5 10.0 13.0 0.00 0.01 0.00 64 1025.9
20220122181347 28 352 8.0 12.0 0.00 0.01 0.00 65 1025.7
20220122180838 28 345 8.0 14.0 0.00 0.01 0.00 65 1025.7
20220122180350 28 354 9.0 14.0 0.00 0.01 0.00 65 1025.7
20220122175843 29 352 1.0 5.0 0.00 0.01 0.00 67 1025.4
20220122175336 29 69 3.0 7.0 0.00 0.01 0.00 66 1025.4
20220122174849 29 123 2.0 10.0 0.00 0.01 0.00 67 1025.4
20220122174341 30 193 5.0 10.0 0.00 0.01 0.00 67 1025.2
20220122173854 29 194 4.0 6.0 0.00 0.01 0.00 67 1025.2
20220122173347 28 229 3.0 6.0 0.00 0.01 0.00 69 1025.2
20220122172839 28 337 2.0 10.0 0.00 0.01 0.00 67 1025.1
20220122172352 27 312 4.0 10.0 0.00 0.01 0.00 69 1025.1
20220122171844 28 244 2.0 6.0 0.00 0.01 0.00 72 1025.1
20220122171337 28 158 2.0 6.0 0.00 0.01 0.00 71 1024.8
20220122170853 28 168 1.0 5.0 0.00 0.01 0.00 71 1024.8
20220122170347 28 140 1.0 5.0 0.00 0.01 0.00 70 1024.8
20220122165839 28 198 3.0 5.0 0.00 0.01 0.00 71 1024.7
20220122165352 28 192 2.0 5.0 0.00 0.01 0.00 68 1024.7
20220122164848 29 19 2.0 3.0 0.00 0.01 0.00 69 1024.7
20220122164341 27 130 2.0 3.0 0.00 0.01 0.00 71 1024.6
20220122163855 28 122 0.0 2.0 0.00 0.01 0.00 68 1024.6
20220122163347 27 162 0.0 2.0 0.00 0.01 0.00 70 1024.6
20220122162841 26 163 0.0 4.0 0.00 0.01 0.00 73 1024.4
20220122162335 26 163 1.0 5.0 0.00 0.01 0.00 73 1024.4
20220122161849 26 134 2.0 5.0 0.00 0.01 0.00 73 1024.4
20220122161339 26 163 2.0 4.0 0.00 0.01 0.00 72 1024.6
20220122160851 26 209 2.0 5.0 0.00 0.01 0.00 72 1024.6
20220122160344 26 193 2.0 5.0 0.00 0.01 0.00 72 1024.6
20220122155837 26 198 3.0 4.0 0.00 0.01 0.00 74 1024.4
20220122155351 26 126 1.0 4.0 0.00 0.02 0.00 73 1024.4
20220122154848 26 177 3.0 4.0 0.00 0.02 0.00 74 1024.4
20220122154341 25 154 2.0 3.0 0.00 0.02 0.00 75 1024.5
20220122153836 25 296 0.0 4.0 0.00 0.02 0.00 75 1024.5
20220122153349 25 298 3.0 5.0 0.00 0.02 0.00 74 1024.5
20220122152842 24 246 1.0 7.0 0.00 0.02 0.00 77 1024.0
20220122152354 23 335 4.0 10.0 0.00 0.02 0.00 80 1024.0